Flag for China Weather past 2 weeks in Hohhot, Inner Mongolia, China

Now
55 °F

Passing clouds.


Feels Like: 55 °F
Forecast: 54 / 76 °F
Wind: 1 mph from Northeast

Location: Hohhot Airport

Current Time: Aug 31, 2015 at 4:44:13 AM

Latest Report: Aug 31, 2015 at 4:00 AM


Visibility: N/A

Pressure: 30.01 "Hg (26.46 "Hg at 1053m altitude)

Humidity: 88%

Dew point: 52 °F

Location of HohhotLocation

Historic Weather in Hohhot — Graph

°F

Hohhot temperature yesterday

Maximum temperature yesterday: 75 °F (at 4:00 PM)
Minimum temperature yesterday: 55 °F (at 3:00 AM)
Average temperature yesterday: 64 °F

Past Weeks' High & Low Weather Summary

 TemperatureHumidityPressure
High90 °F (Aug 16, 3:00 PM)88% (Aug 26, 1:00 AM)30.04 "Hg (Aug 26, 1:00 AM)
Low52 °F (Aug 20, 6:00 AM)12% (Aug 18, 2:00 PM)29.80 "Hg (Aug 16, 4:00 PM)
Average68 °F51%29.94 "Hg
* Reported Aug 16 3:00 AM — Aug 31 3:00 AM, Hohhot, Weather by CustomWeather, © 2015

Note: Actual official high and low records may vary slightly from our data, if they occured in-between our weather recording intervals... More about our weather records

Advertising

Hohhot weather history for previous 24 hours

 ConditionsComfort  
Time TempWeatherWind HumidityBarometerVisibility
3:00 AM
Mon, Aug 31
55 °FPassing clouds.1 mph88%30.01 "HgN/A
2:00 AM57 °FPassing clouds.1 mph82%30.01 "HgN/A
1:00 AM57 °FPassing clouds.3 mph88%30.01 "HgN/A
12:00 AM59 °FPassing clouds.1 mph88%30.01 "HgN/A
11:00 PM
Sun, Aug 30
59 °FPassing clouds.3 mph77%30.01 "HgN/A
10:00 PM61 °FPassing clouds.6 mph72%30.01 "HgN/A
9:00 PM61 °FSprinkles. Passing clouds.6 mph72%30.01 "HgN/A
8:00 PM66 °FPassing clouds.13 mph52%29.98 "HgN/A
7:00 PM68 °FPassing clouds.3 mph53%29.95 "HgN/A
6:00 PM70 °FPassing clouds.6 mph57%29.92 "HgN/A
5:00 PM66 °FScattered clouds.10 mph60%29.92 "HgN/A
4:00 PM75 °FScattered clouds.8 mph39%29.92 "HgN/A
3:00 PM72 °FScattered clouds.3 mph47%29.92 "HgN/A
2:00 PM66 °FThunderstorms. Scattered clouds.8 mph64%29.95 "HgN/A
1:00 PM73 °FThunderstorms. Passing clouds.6 mph47%29.95 "HgN/A
12:00 PM68 °FScattered clouds.1 mph56%29.98 "HgN/A
11:00 AM64 °FScattered clouds.3 mph68%29.98 "HgN/A
10:00 AM64 °FScattered clouds.3 mph68%29.98 "HgN/A
9:00 AM63 °FScattered clouds.1 mph77%29.98 "HgN/A
8:00 AM63 °FScattered clouds.3 mph73%29.98 "HgN/A
7:00 AM61 °FPassing clouds.1 mph72%29.98 "HgN/A
6:00 AM59 °FPassing clouds.10 mph77%29.92 "HgN/A
5:00 AM59 °FClear.8 mph82%29.95 "Hg10 mi
4:00 AM59 °FClear.1 mph72%29.95 "Hg10 mi
Weather by CustomWeather, © 2015

See weather overviewHow to use our weather pages